Location: Arrakis Observatory
(44.1122°N, 95.7153°W)
Time: 20:40:07
(UTC-05:00)

Iridium 35 - Visible Passes

Search period start: 03 July 2015 00:00
Search period end: 13 July 2015 00:00
Orbit: 776 x 779 km, 86.4° (Epoch: 03 July)

Date Brightness Start Highest point End Pass type
(mag) Time Alt. Az. Time Alt. Az. Time Alt. Az.
03 Jul 5.4 00:22:58 34° SSW 00:25:05 57° W 00:30:15 10° N visible
03 Jul 5.0 23:49:23 37° S 23:51:32 80° E 23:56:47 10° N visible
04 Jul 7.4 01:30:29 10° W 01:33:04 13° WNW 01:35:23 10° NW visible
04 Jul 5.5 23:15:48 28° SE 23:18:05 44° E 23:23:03 10° NNE visible
05 Jul 6.8 00:56:15 16° WSW 00:59:06 23° WNW 01:03:10 10° NNW visible
05 Jul 6.3 22:42:12 17° ESE 22:44:44 25° E 22:49:00 10° NNE visible
06 Jul 6.0 00:22:39 24° SW 00:25:17 40° W 00:30:11 10° N visible
06 Jul 6.9 22:08:55 10° ESE 22:11:29 14° ENE 22:14:18 10° NE visible
06 Jul 5.1 23:49:02 30° SSW 23:51:39 73° W 23:56:53 10° N visible
07 Jul 5.1 23:15:24 28° SSE 23:18:07 63° E 23:23:18 10° N visible
08 Jul 7.3 00:56:03 10° WSW 00:59:27 17° WNW 01:02:38 10° NNW visible
08 Jul 5.8 22:41:46 19° SE 22:44:43 35° E 22:49:27 10° NNE visible
09 Jul 6.6 00:22:13 16° SW 00:25:32 29° WNW 00:30:01 10° NNW visible
09 Jul 6.5 22:08:06 11° ESE 22:11:24 20° E 22:15:13 10° NNE visible
09 Jul 5.7 23:48:34 22° SSW 23:51:47 51° W 23:56:53 10° N visible
10 Jul 5.0 23:14:53 23° S 23:18:12 89° E 23:23:27 10° N visible
11 Jul 7.6 00:57:54 10° W 00:59:51 12° WNW 01:01:30 10° NW visible
11 Jul 5.3 22:41:13 19° SSE 22:44:43 50° E 22:49:47 10° NNE visible
12 Jul 7.1 00:21:54 10° WSW 00:25:50 21° WNW 00:29:39 10° NNW visible
12 Jul 6.1 22:07:30 12° SE 22:11:21 28° E 22:15:48 10° NNE visible
12 Jul 6.3 23:47:57 14° SW 23:52:00 36° W 23:56:46 10° NNW visible
